Time,TemperatureF,DewpointF,PressureIn,WindDirection,WindDirectionDegrees,WindSpeedMPH,WindSpeedGustMPH,Humidity,HourlyPrecipIn,Conditions,Clouds,dailyrainin,SoftwareType,DateUTC
2013-02-28 00:01:00,16.0,6.0,-100.00,SSW,210,26.0,33.0,64,0.00,,,-99.99,,2013-02-28 07:01:00,
2013-02-28 00:11:00,16.0,6.0,-100.00,SSW,213,26.0,33.0,64,0.00,,,-99.99,,2013-02-28 07:11:00,
2013-02-28 00:21:00,14.0,5.0,-100.00,SW,216,24.0,30.0,66,0.00,,,-99.99,,2013-02-28 07:21:00,
2013-02-28 00:31:00,15.0,6.0,-100.00,SSW,213,24.0,29.0,68,0.00,,,-99.99,,2013-02-28 07:31:00,
2013-02-28 00:41:00,14.0,5.0,-100.00,SW,215,23.0,30.0,67,0.00,,,-99.99,,2013-02-28 07:41:00,
2013-02-28 00:51:00,14.0,5.0,-100.00,SSW,212,21.0,27.0,68,0.00,,,-99.99,,2013-02-28 07:51:00,
2013-02-28 01:01:00,14.0,6.0,-100.00,SSW,210,23.0,31.0,69,0.00,,,-99.99,,2013-02-28 08:01:00,
2013-02-28 01:11:00,14.0,6.0,-100.00,SSW,209,25.0,31.0,69,0.00,,,-99.99,,2013-02-28 08:11:00,
2013-02-28 01:22:00,15.0,6.0,-100.00,SSW,208,26.0,32.0,68,0.00,,,-99.99,,2013-02-28 08:22:00,
2013-02-28 01:32:00,15.0,6.0,-100.00,SSW,206,22.0,27.0,66,0.00,,,-99.99,,2013-02-28 08:32:00,
2013-02-28 01:42:00,15.0,5.0,-100.00,SSW,202,19.0,25.0,66,0.00,,,-99.99,,2013-02-28 08:42:00,
2013-02-28 01:52:00,14.0,6.0,-100.00,SSW,212,15.0,28.0,68,0.00,,,-99.99,,2013-02-28 08:52:00,
2013-02-28 02:03:00,15.0,6.0,-100.00,SSW,199,27.0,34.0,68,0.00,,,-99.99,,2013-02-28 09:03:00,
2013-02-28 02:11:00,15.0,6.0,-100.00,SSW,200,29.0,35.0,69,0.00,,,-99.99,,2013-02-28 09:11:00,
2013-02-28 02:22:00,15.0,7.0,-100.00,SSW,206,30.0,40.0,70,0.00,,,-99.99,,2013-02-28 09:22:00,
2013-02-28 02:32:00,15.0,7.0,-100.00,SSW,208,32.0,40.0,71,0.00,,,-99.99,,2013-02-28 09:32:00,
2013-02-28 02:42:00,15.0,7.0,-100.00,SSW,206,34.0,43.0,68,0.00,,,-99.99,,2013-02-28 09:42:00,
2013-02-28 02:52:00,15.0,7.0,-100.00,SSW,208,30.0,38.0,69,0.00,,,-99.99,,2013-02-28 09:52:00,
2013-02-28 03:01:00,15.0,7.0,-100.00,SSW,205,32.0,39.0,68,0.00,,,-99.99,,2013-02-28 10:01:00,
2013-02-28 03:11:00,15.0,6.0,-100.00,SSW,206,30.0,38.0,66,0.00,,,-99.99,,2013-02-28 10:11:00,
2013-02-28 03:21:00,15.0,6.0,-100.00,SSW,209,29.0,35.0,65,0.00,,,-99.99,,2013-02-28 10:21:00,
2013-02-28 03:32:00,15.0,6.0,-100.00,SW,215,29.0,35.0,68,0.00,,,-99.99,,2013-02-28 10:32:00,
2013-02-28 03:42:00,15.0,6.0,-100.00,SW,220,30.0,39.0,65,0.00,,,-99.99,,2013-02-28 10:42:00,
2013-02-28 03:52:00,15.0,6.0,-100.00,SW,220,32.0,40.0,67,0.00,,,-99.99,,2013-02-28 10:52:00,
2013-02-28 04:01:00,15.0,7.0,-100.00,SSW,213,35.0,44.0,69,0.00,,,-99.99,,2013-02-28 11:01:00,
2013-02-28 04:11:00,16.0,6.0,-100.00,SSW,210,37.0,49.0,67,0.00,,,-99.99,,2013-02-28 11:11:00,
2013-02-28 04:21:00,15.0,7.0,-100.00,SSW,203,38.0,45.0,68,0.00,,,-99.99,,2013-02-28 11:21:00,
2013-02-28 04:32:00,16.0,6.0,-100.00,SSW,206,35.0,49.0,65,0.00,,,-99.99,,2013-02-28 11:32:00,
2013-02-28 04:42:00,15.0,6.0,-100.00,SSW,209,34.0,44.0,68,0.00,,,-99.99,,2013-02-28 11:42:00,
2013-02-28 04:52:00,15.0,7.0,-100.00,SW,215,35.0,43.0,70,0.00,,,-99.99,,2013-02-28 11:52:00,
2013-02-28 05:01:00,15.0,6.0,-100.00,SSW,213,33.0,41.0,69,0.00,,,-99.99,,2013-02-28 12:01:00,
2013-02-28 05:11:00,15.0,6.0,-100.00,SSW,212,34.0,42.0,66,0.00,,,-99.99,,2013-02-28 12:11:00,
2013-02-28 05:21:00,15.0,6.0,-100.00,SSW,212,33.0,40.0,68,0.00,,,-99.99,,2013-02-28 12:21:00,
2013-02-28 05:32:00,15.0,6.0,-100.00,SSW,210,34.0,40.0,66,0.00,,,-99.99,,2013-02-28 12:32:00,
2013-02-28 05:42:00,15.0,6.0,-100.00,SSW,209,34.0,40.0,66,0.00,,,-99.99,,2013-02-28 12:42:00,
2013-02-28 05:52:00,15.0,6.0,-100.00,SSW,205,34.0,43.0,66,0.00,,,-99.99,,2013-02-28 12:52:00,
2013-02-28 06:02:00,15.0,6.0,-100.00,SSW,205,31.0,40.0,66,0.00,,,-99.99,,2013-02-28 13:02:00,
2013-02-28 06:11:00,15.0,6.0,-100.00,SSW,203,30.0,37.0,64,0.00,,,-99.99,,2013-02-28 13:11:00,
2013-02-28 06:21:00,15.0,6.0,-100.00,SSW,209,30.0,42.0,64,0.00,,,-99.99,,2013-02-28 13:21:00,
2013-02-28 06:32:00,15.0,5.0,-100.00,SW,215,30.0,37.0,65,0.00,,,-99.99,,2013-02-28 13:32:00,
2013-02-28 06:42:00,15.0,5.0,-100.00,SW,219,29.0,34.0,65,0.00,,,-99.99,,2013-02-28 13:42:00,
2013-02-28 06:52:00,15.0,5.0,-100.00,SW,217,30.0,37.0,65,0.00,,,-99.99,,2013-02-28 13:52:00,
2013-02-28 07:01:00,15.0,6.0,-100.00,SW,215,31.0,38.0,68,0.00,,,-99.99,,2013-02-28 14:01:00,
2013-02-28 07:11:00,14.0,5.0,-100.00,SW,219,30.0,37.0,67,0.00,,,-99.99,,2013-02-28 14:11:00,
2013-02-28 07:21:00,15.0,5.0,-100.00,SW,217,30.0,37.0,65,0.00,,,-99.99,,2013-02-28 14:21:00,
2013-02-28 07:32:00,15.0,5.0,-100.00,SW,216,30.0,42.0,65,0.00,,,-99.99,,2013-02-28 14:32:00,
2013-02-28 07:42:00,15.0,5.0,-100.00,SSW,210,29.0,35.0,65,0.00,,,-99.99,,2013-02-28 14:42:00,
2013-02-28 07:52:00,15.0,5.0,-100.00,SSW,210,26.0,32.0,65,0.00,,,-99.99,,2013-02-28 14:52:00,
2013-02-28 08:02:00,14.0,5.0,-100.00,SW,220,21.0,29.0,66,0.00,,,-99.99,,2013-02-28 15:02:00,
2013-02-28 08:11:00,15.0,5.0,-100.00,SW,224,21.0,26.0,65,0.00,,,-99.99,,2013-02-28 15:11:00,
2013-02-28 08:21:00,16.0,6.0,-100.00,SW,223,24.0,34.0,64,0.00,,,-99.99,,2013-02-28 15:21:00,
2013-02-28 08:32:00,16.0,6.0,-100.00,SW,224,23.0,32.0,62,0.00,,,-99.99,,2013-02-28 15:32:00,
2013-02-28 08:41:00,17.0,6.0,-100.00,SW,220,25.0,34.0,63,0.00,,,-99.99,,2013-02-28 15:41:00,
2013-02-28 08:52:00,17.0,6.0,-100.00,SW,220,22.0,34.0,62,0.00,,,-99.99,,2013-02-28 15:52:00,
2013-02-28 09:01:00,17.0,7.0,-100.00,SW,223,24.0,34.0,62,0.00,,,-99.99,,2013-02-28 16:01:00,
2013-02-28 09:11:00,17.0,7.0,-100.00,SW,223,22.0,32.0,64,0.00,,,-99.99,,2013-02-28 16:11:00,
2013-02-28 09:22:00,17.0,8.0,-100.00,SSW,213,28.0,33.0,66,0.00,,,-99.99,,2013-02-28 16:22:00,
2013-02-28 09:32:00,17.0,8.0,-100.00,SSW,213,28.0,34.0,68,0.00,,,-99.99,,2013-02-28 16:32:00,
2013-02-28 09:42:00,17.0,8.0,-100.00,SSW,212,29.0,40.0,67,0.00,,,-99.99,,2013-02-28 16:42:00,
2013-02-28 09:52:00,17.0,8.0,-100.00,SW,216,27.0,36.0,67,0.00,,,-99.99,,2013-02-28 16:52:00,
2013-02-28 10:01:00,18.0,8.0,-100.00,SW,215,30.0,39.0,64,0.00,,,-99.99,,2013-02-28 17:01:00,
2013-02-28 10:11:00,18.0,9.0,-100.00,SW,219,26.0,34.0,68,0.00,,,-99.99,,2013-02-28 17:11:00,
2013-02-28 10:21:00,18.0,9.0,-100.00,SW,217,30.0,37.0,67,0.00,,,-99.99,,2013-02-28 17:21:00,
2013-02-28 10:32:00,18.0,9.0,-100.00,SW,216,29.0,37.0,70,0.00,,,-99.99,,2013-02-28 17:32:00,
2013-02-28 10:42:00,18.0,9.0,-100.00,SW,215,30.0,39.0,67,0.00,,,-99.99,,2013-02-28 17:42:00,
2013-02-28 10:52:00,18.0,9.0,-100.00,SW,216,29.0,37.0,67,0.00,,,-99.99,,2013-02-28 17:52:00,
2013-02-28 11:02:00,18.0,9.0,-100.00,SW,219,30.0,39.0,66,0.00,,,-99.99,,2013-02-28 18:02:00,
2013-02-28 11:11:00,19.0,8.0,-100.00,SW,220,28.0,35.0,63,0.00,,,-99.99,,2013-02-28 18:11:00,
2013-02-28 11:22:00,19.0,10.0,-100.00,SW,219,27.0,36.0,68,0.00,,,-99.99,,2013-02-28 18:22:00,
2013-02-28 11:32:00,19.0,11.0,-100.00,SW,222,27.0,35.0,69,0.00,,,-99.99,,2013-02-28 18:32:00,
2013-02-28 11:42:00,19.0,10.0,-100.00,SW,220,29.0,37.0,68,0.00,,,-99.99,,2013-02-28 18:42:00,
2013-02-28 11:52:00,19.0,10.0,-100.00,SW,216,29.0,37.0,66,0.00,,,-99.99,,2013-02-28 18:52:00,
2013-02-28 12:01:00,19.0,10.0,-100.00,SSW,213,32.0,39.0,68,0.00,,,-99.99,,2013-02-28 19:01:00,
2013-02-28 12:11:00,19.0,11.0,-100.00,SSW,213,33.0,41.0,69,0.00,,,-99.99,,2013-02-28 19:11:00,
2013-02-28 12:21:00,20.0,11.0,-100.00,SSW,210,30.0,38.0,70,0.00,,,-99.99,,2013-02-28 19:21:00,
2013-02-28 12:32:00,20.0,11.0,-100.00,SW,215,28.0,38.0,67,0.00,,,-99.99,,2013-02-28 19:32:00,
2013-02-28 12:41:00,20.0,11.0,-100.00,SW,219,27.0,35.0,68,0.00,,,-99.99,,2013-02-28 19:41:00,
2013-02-28 12:51:00,20.0,12.0,-100.00,SW,236,27.0,34.0,69,0.00,,,-99.99,,2013-02-28 19:51:00,
2013-02-28 13:01:00,20.0,12.0,-100.00,WSW,241,27.0,32.0,71,0.00,,,-99.99,,2013-02-28 20:01:00,
2013-02-28 13:12:00,20.0,12.0,-100.00,WSW,237,29.0,37.0,69,0.00,,,-99.99,,2013-02-28 20:12:00,
2013-02-28 13:21:00,20.0,12.0,-100.00,WSW,239,28.0,35.0,71,0.00,,,-99.99,,2013-02-28 20:21:00,
2013-02-28 13:32:00,20.0,13.0,-100.00,WSW,244,26.0,35.0,74,0.00,,,-99.99,,2013-02-28 20:32:00,
2013-02-28 13:42:00,20.0,13.0,-100.00,WSW,244,27.0,36.0,72,0.00,,,-99.99,,2013-02-28 20:42:00,
2013-02-28 13:52:00,20.0,13.0,-100.00,WSW,241,29.0,39.0,73,0.00,,,-99.99,,2013-02-28 20:52:00,
2013-02-28 14:01:00,20.0,13.0,-100.00,WSW,237,31.0,39.0,72,0.00,,,-99.99,,2013-02-28 21:01:00,
2013-02-28 14:11:00,20.0,13.0,-100.00,WSW,239,30.0,37.0,74,0.00,,,-99.99,,2013-02-28 21:11:00,
2013-02-28 14:22:00,20.0,14.0,-100.00,WSW,250,30.0,39.0,77,0.00,,,-99.99,,2013-02-28 21:22:00,
2013-02-28 14:32:00,21.0,14.0,-100.00,WSW,247,29.0,38.0,75,0.00,,,-99.99,,2013-02-28 21:32:00,
2013-02-28 14:41:00,20.0,12.0,-100.00,WSW,239,33.0,42.0,70,0.00,,,-99.99,,2013-02-28 21:41:00,
2013-02-28 14:51:00,20.0,13.0,-100.00,SW,233,32.0,40.0,71,0.00,,,-99.99,,2013-02-28 21:51:00,
2013-02-28 15:01:00,20.0,12.0,-100.00,WSW,240,33.0,47.0,71,0.00,,,-99.99,,2013-02-28 22:01:00,
2013-02-28 15:11:00,21.0,12.0,-100.00,WSW,239,34.0,45.0,68,0.00,,,-99.99,,2013-02-28 22:11:00,
2013-02-28 15:21:00,21.0,13.0,-100.00,WSW,241,37.0,45.0,70,0.00,,,-99.99,,2013-02-28 22:21:00,
2013-02-28 15:32:00,21.0,13.0,-100.00,WSW,244,34.0,40.0,72,0.00,,,-99.99,,2013-02-28 22:32:00,
2013-02-28 15:41:00,21.0,13.0,-100.00,WSW,244,34.0,40.0,70,0.00,,,-99.99,,2013-02-28 22:41:00,
2013-02-28 15:52:00,20.0,13.0,-100.00,WSW,241,35.0,43.0,72,0.00,,,-99.99,,2013-02-28 22:52:00,
2013-02-28 16:01:00,21.0,13.0,-100.00,WSW,239,34.0,43.0,73,0.00,,,-99.99,,2013-02-28 23:01:00,
2013-02-28 16:11:00,21.0,14.0,-100.00,WSW,237,34.0,42.0,75,0.00,,,-99.99,,2013-02-28 23:11:00,
2013-02-28 16:22:00,21.0,13.0,-100.00,SW,236,35.0,44.0,72,0.00,,,-99.99,,2013-02-28 23:22:00,
2013-02-28 16:32:00,21.0,13.0,-100.00,SW,229,34.0,43.0,72,0.00,,,-99.99,,2013-02-28 23:32:00,
2013-02-28 16:41:00,21.0,14.0,-100.00,SW,229,31.0,40.0,73,0.00,,,-99.99,,2013-02-28 23:41:00,
2013-02-28 16:52:00,21.0,13.0,-100.00,SW,233,32.0,41.0,72,0.00,,,-99.99,,2013-02-28 23:52:00,
2013-02-28 17:01:00,21.0,14.0,-100.00,SW,234,32.0,42.0,72,0.00,,,-99.99,,2013-03-01 00:01:00,
2013-02-28 17:11:00,21.0,14.0,-100.00,SW,230,30.0,38.0,73,0.00,,,-99.99,,2013-03-01 00:11:00,
2013-02-28 17:22:00,21.0,14.0,-100.00,SW,230,28.0,37.0,74,0.00,,,-99.99,,2013-03-01 00:22:00,
2013-02-28 17:32:00,22.0,14.0,-100.00,SW,229,27.0,36.0,72,0.00,,,-99.99,,2013-03-01 00:32:00,
2013-02-28 17:41:00,21.0,14.0,-100.00,SW,232,28.0,35.0,74,0.00,,,-99.99,,2013-03-01 00:41:00,
2013-02-28 17:51:00,21.0,14.0,-100.00,SW,227,27.0,35.0,73,0.00,,,-99.99,,2013-03-01 00:51:00,
2013-02-28 18:01:00,21.0,14.0,-100.00,SW,224,28.0,38.0,74,0.00,,,-99.99,,2013-03-01 01:01:00,
2013-02-28 18:11:00,21.0,15.0,-100.00,SW,223,29.0,41.0,75,0.00,,,-99.99,,2013-03-01 01:11:00,
2013-02-28 18:21:00,21.0,15.0,-100.00,SW,219,30.0,41.0,76,0.00,,,-99.99,,2013-03-01 01:21:00,
2013-02-28 18:32:00,20.0,14.0,-100.00,SW,222,29.0,35.0,77,0.00,,,-99.99,,2013-03-01 01:32:00,
2013-02-28 18:42:00,20.0,14.0,-100.00,SW,220,27.0,35.0,78,0.00,,,-99.99,,2013-03-01 01:42:00,
2013-02-28 18:51:00,20.0,14.0,-100.00,SW,222,28.0,39.0,76,0.00,,,-99.99,,2013-03-01 01:51:00,
2013-02-28 19:01:00,21.0,15.0,-100.00,SW,222,27.0,33.0,76,0.00,,,-99.99,,2013-03-01 02:01:00,
2013-02-28 19:11:00,21.0,15.0,-100.00,SW,220,29.0,37.0,77,0.00,,,-99.99,,2013-03-01 02:11:00,
2013-02-28 19:21:00,21.0,15.0,-100.00,SW,220,27.0,34.0,78,0.00,,,-99.99,,2013-03-01 02:21:00,
2013-02-28 19:32:00,20.0,15.0,-100.00,SW,219,29.0,36.0,79,0.00,,,-99.99,,2013-03-01 02:32:00,
2013-02-28 19:42:00,20.0,15.0,-100.00,SW,219,29.0,38.0,79,0.00,,,-99.99,,2013-03-01 02:42:00,
2013-02-28 19:52:00,20.0,15.0,-100.00,SW,216,30.0,40.0,80,0.00,,,-99.99,,2013-03-01 02:52:00,
2013-02-28 20:01:00,20.0,15.0,-100.00,SW,220,30.0,39.0,80,0.00,,,-99.99,,2013-03-01 03:01:00,
2013-02-28 20:11:00,20.0,16.0,-100.00,SW,219,29.0,38.0,81,0.00,,,-99.99,,2013-03-01 03:11:00,
2013-02-28 20:21:00,21.0,16.0,-100.00,SW,216,30.0,37.0,82,0.00,,,-99.99,,2013-03-01 03:21:00,
2013-02-28 20:32:00,21.0,16.0,-100.00,SSW,213,32.0,40.0,82,0.00,,,-99.99,,2013-03-01 03:32:00,
2013-02-28 20:41:00,21.0,17.0,-100.00,SSW,213,32.0,40.0,83,0.00,,,-99.99,,2013-03-01 03:41:00,
2013-02-28 20:51:00,21.0,17.0,-100.00,SSW,213,33.0,39.0,84,0.00,,,-99.99,,2013-03-01 03:51:00,
2013-02-28 21:01:00,21.0,17.0,-100.00,SSW,212,34.0,41.0,84,0.00,,,-99.99,,2013-03-01 04:01:00,
2013-02-28 21:11:00,21.0,17.0,-100.00,SW,215,32.0,40.0,84,0.00,,,-99.99,,2013-03-01 04:11:00,
2013-02-28 21:21:00,21.0,17.0,-100.00,SW,216,34.0,44.0,85,0.00,,,-99.99,,2013-03-01 04:21:00,
2013-02-28 21:32:00,21.0,17.0,-100.00,SW,215,34.0,43.0,85,0.00,,,-99.99,,2013-03-01 04:32:00,
2013-02-28 21:42:00,21.0,17.0,-100.00,SSW,213,34.0,41.0,85,0.00,,,-99.99,,2013-03-01 04:42:00,
2013-02-28 21:52:00,21.0,17.0,-100.00,SSW,213,32.0,39.0,84,0.00,,,-99.99,,2013-03-01 04:52:00,
2013-02-28 22:02:00,21.0,17.0,-100.00,SW,215,32.0,39.0,84,0.00,,,-99.99,,2013-03-01 05:02:00,
2013-02-28 22:11:00,21.0,17.0,-100.00,SW,215,32.0,38.0,84,0.00,,,-99.99,,2013-03-01 05:11:00,
2013-02-28 22:22:00,20.0,17.0,-100.00,SSW,213,32.0,40.0,84,0.00,,,-99.99,,2013-03-01 05:22:00,
2013-02-28 22:32:00,20.0,16.0,-100.00,SW,215,30.0,37.0,84,0.00,,,-99.99,,2013-03-01 05:32:00,
2013-02-28 22:42:00,21.0,17.0,-100.00,SW,215,30.0,38.0,84,0.00,,,-99.99,,2013-03-01 05:42:00,
2013-02-28 22:52:00,21.0,17.0,-100.00,SW,215,30.0,40.0,85,0.00,,,-99.99,,2013-03-01 05:52:00,
2013-02-28 23:02:00,20.0,16.0,-100.00,SW,219,29.0,41.0,83,0.00,,,-99.99,,2013-03-01 06:02:00,
2013-02-28 23:11:00,21.0,16.0,-100.00,SW,215,29.0,39.0,83,0.00,,,-99.99,,2013-03-01 06:11:00,
2013-02-28 23:21:00,21.0,16.0,-100.00,SSW,213,29.0,37.0,82,0.00,,,-99.99,,2013-03-01 06:21:00,
2013-02-28 23:32:00,21.0,16.0,-100.00,SSW,213,30.0,37.0,81,0.00,,,-99.99,,2013-03-01 06:32:00,
2013-02-28 23:42:00,21.0,16.0,-100.00,SSW,213,30.0,37.0,82,0.00,,,-99.99,,2013-03-01 06:42:00,
2013-02-28 23:52:00,21.0,16.0,-100.00,SW,215,29.0,37.0,82,0.00,,,-99.99,,2013-03-01 06:52:00,